Location: Kumla
(59.1265°N, 15.1401°E)
Time: 17:06:00
(UTC+01:00)

A-11 Canister half - Pass Details

Date: 03 December 2023
Orbit: 1526 x 1682 km, 47.3° (Epoch: 24 February)

Event Time Altitude Azimuth Distance (km) Brightness Sun altitude
Rises 02:24:10 0° 280° (W) 4,894 - -43.8°
Reaches altitude 10° 02:28:37 10° 263° (W) 3,879 - -43.4°
Maximum altitude 02:34:36 18° 225° (SW) 3,224 - -42.8°
Drops below altitude 10° 02:40:30 10° 187° (S) 3,793 - -42.1°
Sets 02:44:48 0° 170° (S) 4,746 - -41.6°
